Location: Albany
(35.0170°S, 117.8920°E)
Time: 16:53:44
(UTC+08:00)

Explorer 11/Cluster Stage 4 - Pass Details

Date: 25 January 2021
Orbit: 467 x 1257 km, 28.8° (Epoch: 02 March)

Event Time Altitude Azimuth Distance (km) Brightness Sun altitude
Rises 12:10:53 0° 276° (W) 2,954 9.5 73.8°
Reaches altitude 10° 12:13:46 10° 290° (WNW) 1,914 8.8 73.8°
Maximum altitude 12:17:15 23° 343° (NNW) 1,144 8.1 73.9°
Drops below altitude 10° 12:20:22 10° 38° (NE) 1,688 8.7 73.9°
Sets 12:22:44 0° 53° (NE) 2,519 9.3 73.9°
